Copper Mountain, CO

6:42 PM MDT on October 18, 2019 (GMT -0600)
Copper Mountain

Weather History for KCCU - September, 2019

Change the Weather History Date:

Monday, September 16, 2019

  Actual Average Record
Temperature  
Mean Temperature 53 °F -  
Max Temperature 59 °F - 66 °F (2018)
Min Temperature 46 °F - 26 °F (2006)
Degree Days  
Heating Degree Days 12    
Month to date heating degree days 157  
Cooling Degree Days 0    
Month to date cooling degree days 2  
Growing Degree Days 2 (Base 50)    
Moisture  
Dew Point 31 °F    
Average Humidity 49    
Maximum Humidity 65    
Minimum Humidity 32    
Precipitation  
Precipitation 0.00 in - 0.04 in (2013)
Snow  
Snow 0.00 in - - ()
Snow Depth 0.00 in    
Sea Level Pressure  
Sea Level Pressure 30.49 in    
Wind  
Wind Speed 6 mph (WNW)    
Max Wind Speed 17 mph    
Max Gust Speed 21 mph    
Visibility 10 miles    
Events Thunderstorm    
T = Trace of Precipitation, MM = Missing Value Source: NWS Daily Summary

Daily Weather History Graph

Daily Weather History Graph

Search for Another Location

Airport or City:

Astronomy

Sep. 16, 2019 Rise Set
Actual Time 6:46 AM MDT 7:11 PM MDT
Civil Twilight 6:19 AM MDT 7:38 PM MDT
Nautical Twilight 5:47 AM MDT 8:10 PM MDT
Astronomical Twilight 5:15 AM MDT 8:42 PM MDT
Moon 8:48 PM MDT (9/16) 8:55 AM MDT (9/16)
Length of Visible Light 13h 19m
Length of Day
12h 25m
Waning Gibbous, 94% of the Moon is Illuminated
Sep 16
Waning Gibbous
Sep 21
Last Quarter
Sep 28
New
Oct 5
First Quarter
Oct 13
Full

Hourly Weather History & Observations

Time (MDT) Temp. Windchill Dew Point Humidity Pressure Visibility Wind Dir Wind Speed Gust Speed Precip Events Conditions
12:12 AM 48.2 °F - 23.0 °F 37% 30.53 in 10.0 mi WNW 8.1 mph - N/A   Mostly Cloudy
12:30 AM 48.2 °F - 23.0 °F 37% 30.53 in 10.0 mi WNW 8.1 mph - N/A   Mostly Cloudy
1:12 AM 48.2 °F - 23.0 °F 37% 30.52 in 10.0 mi North - - N/A   Overcast
1:30 AM 50.0 °F - 23.0 °F 35% 30.52 in 10.0 mi North - - N/A   Mostly Cloudy
1:48 AM 50.0 °F - 21.2 °F 32% 30.53 in 10.0 mi North - - N/A   Overcast
2:12 AM 48.2 °F - 21.2 °F 34% 30.53 in 10.0 mi Calm Calm - N/A   Overcast
2:30 AM 50.0 °F - 21.2 °F 32% 30.53 in 10.0 mi Calm Calm - N/A   Overcast
3:12 AM 48.2 °F - 23.0 °F 37% 30.51 in 10.0 mi Calm Calm - N/A   Overcast
3:30 AM 48.2 °F - 23.0 °F 37% 30.51 in 10.0 mi NW 3.5 mph - N/A   Overcast
3:48 AM 46.4 °F 43.5 °F 23.0 °F 40% 30.51 in 10.0 mi West 5.8 mph - N/A   Overcast
4:12 AM 46.4 °F - 24.8 °F 43% 30.50 in 10.0 mi North - - N/A   Overcast
4:29 AM 46.4 °F 42.4 °F 24.8 °F 43% 30.50 in 10.0 mi West 8.1 mph 17.3 mph N/A   Overcast
4:53 AM 46.4 °F - 26.6 °F 46% 30.49 in 10.0 mi North - - N/A   Overcast
5:12 AM 46.4 °F - 26.6 °F 46% 30.50 in 10.0 mi North - - N/A   Overcast
5:30 AM 46.4 °F 45.2 °F 26.6 °F 46% 30.49 in 10.0 mi SSW 3.5 mph - N/A   Mostly Cloudy
5:48 AM 46.4 °F - 26.6 °F 46% 30.50 in 10.0 mi Calm Calm - N/A   Mostly Cloudy
6:13 AM 46.4 °F - 26.6 °F 46% 30.50 in 10.0 mi Calm Calm - N/A   Overcast
6:31 AM 46.4 °F - 26.6 °F 46% 30.50 in 10.0 mi Calm Calm - N/A   Mostly Cloudy
6:48 AM 46.4 °F 43.5 °F 26.6 °F 46% 30.50 in 10.0 mi NW 5.8 mph - N/A   Scattered Clouds
7:12 AM 46.4 °F 43.5 °F 26.6 °F 46% 30.50 in 10.0 mi WNW 5.8 mph - N/A   Mostly Cloudy
7:30 AM 46.4 °F 41.9 °F 28.4 °F 50% 30.50 in 10.0 mi West 9.2 mph - N/A   Mostly Cloudy
7:48 AM 46.4 °F 40.4 °F 28.4 °F 50% 30.50 in 10.0 mi West 13.8 mph - N/A   Overcast
8:12 AM 46.4 °F 42.9 °F 28.4 °F 50% 30.51 in 10.0 mi WNW 6.9 mph - N/A   Overcast
8:30 AM 46.4 °F 43.5 °F 28.4 °F 50% 30.51 in 10.0 mi WNW 5.8 mph - N/A   Overcast
8:52 AM 46.4 °F 41.9 °F 30.2 °F 53% 30.52 in 10.0 mi West 9.2 mph - N/A   Overcast
9:12 AM 46.4 °F 41.5 °F 32.0 °F 57% 30.52 in 10.0 mi West 10.4 mph 16.1 mph N/A   Overcast
9:30 AM 48.2 °F - 32.0 °F 54% 30.52 in 10.0 mi WNW 6.9 mph - N/A   Overcast
9:52 AM 50.0 °F - 32.0 °F 50% 30.52 in 10.0 mi North 3.5 mph - N/A   Overcast
10:12 AM 51.8 °F - 33.8 °F 50% 30.52 in 10.0 mi Calm Calm - N/A   Overcast
10:29 AM 50.0 °F - 33.8 °F 54% 30.52 in 10.0 mi Calm Calm - N/A   Overcast
10:52 AM 51.8 °F - 35.6 °F 54% 30.52 in 10.0 mi WNW 6.9 mph - N/A   Overcast
11:13 AM 53.6 °F - 33.8 °F 47% 30.51 in 10.0 mi NW 6.9 mph - N/A   Overcast
11:30 AM 53.6 °F - 35.6 °F 51% 30.51 in 10.0 mi NW 4.6 mph - N/A   Overcast
11:53 AM 53.6 °F - 33.8 °F 47% 30.51 in 10.0 mi WNW 6.9 mph - N/A   Overcast
12:12 PM 53.6 °F - 33.8 °F 47% 30.51 in 10.0 mi North - - N/A   Overcast
12:31 PM 53.6 °F - 33.8 °F 47% 30.50 in 10.0 mi West 5.8 mph - N/A   Overcast
12:49 PM 53.6 °F - 33.8 °F 47% 30.49 in 10.0 mi West 8.1 mph - N/A   Overcast
1:12 PM 53.6 °F - 33.8 °F 47% 30.49 in 10.0 mi NW 6.9 mph - N/A   Overcast
1:30 PM 53.6 °F - 33.8 °F 47% 30.49 in 10.0 mi Calm Calm - N/A   Overcast
1:54 PM 59.0 °F - 35.6 °F 42% 30.49 in 10.0 mi SE 4.6 mph - N/A Thunderstorm Overcast
2:12 PM 57.2 °F - 35.6 °F 44% 30.49 in 10.0 mi NE 4.6 mph - N/A   Overcast
2:30 PM 53.6 °F - 35.6 °F 51% 30.48 in 10.0 mi NW 9.2 mph - N/A   Overcast
2:54 PM 55.4 °F - 37.4 °F 51% 30.48 in 10.0 mi East 3.5 mph - N/A   Overcast
3:12 PM 53.6 °F - 35.6 °F 51% 30.48 in 10.0 mi North - - N/A   Overcast
3:29 PM 59.0 °F - 37.4 °F 45% 30.48 in 10.0 mi NNW 4.6 mph - N/A   Overcast
3:53 PM 53.6 °F - 33.8 °F 47% 30.47 in 10.0 mi NNW 6.9 mph - N/A   Overcast
4:12 PM 55.4 °F - 35.6 °F 47% 30.47 in 10.0 mi North - - N/A   Mostly Cloudy
4:29 PM 59.0 °F - 33.8 °F 39% 30.47 in 10.0 mi West 11.5 mph 17.3 mph N/A   Overcast
4:53 PM 59.0 °F - 33.8 °F 39% 30.46 in 10.0 mi NW 12.7 mph 20.7 mph N/A   Mostly Cloudy
5:12 PM 55.4 °F - 35.6 °F 47% 30.46 in 10.0 mi NNW 8.1 mph 21.9 mph N/A   Overcast
5:30 PM 55.4 °F - 33.8 °F 44% 30.46 in 10.0 mi North - - N/A   Mostly Cloudy
5:53 PM 59.0 °F - 35.6 °F 42% 30.46 in 10.0 mi North - - N/A   Scattered Clouds
6:09 PM 57.2 °F - 33.8 °F 41% 30.47 in 10.0 mi NW 10.4 mph 23.0 mph N/A   Clear
6:33 PM 53.6 °F - 33.8 °F 47% 30.46 in 10.0 mi West 13.8 mph 19.6 mph N/A   Scattered Clouds
6:51 PM 53.6 °F - 35.6 °F 51% 30.46 in 10.0 mi West 17.3 mph - N/A   Clear
7:12 PM 51.8 °F - 33.8 °F 50% 30.46 in 10.0 mi West 16.1 mph - N/A   Clear
7:30 PM 51.8 °F - 35.6 °F 54% 30.47 in 10.0 mi West 13.8 mph - N/A   Clear
7:48 PM 50.0 °F - 35.6 °F 58% 30.46 in 10.0 mi WNW 12.7 mph - N/A   Clear
8:12 PM 48.2 °F - 33.8 °F 58% 30.46 in 10.0 mi NW 10.4 mph - N/A   Clear
8:30 PM 46.4 °F 41.5 °F 35.6 °F 66% 30.46 in 10.0 mi WNW 10.4 mph - N/A   Clear
8:48 PM 46.4 °F 41.5 °F 35.6 °F 66% 30.46 in 10.0 mi West 10.4 mph - N/A   Clear
9:12 PM 46.4 °F - 35.6 °F 66% 30.47 in 10.0 mi North - - N/A   Clear
9:30 PM 46.4 °F 45.2 °F 35.6 °F 66% 30.48 in 10.0 mi SSE 3.5 mph - N/A   Clear
9:48 PM 46.4 °F 45.2 °F 33.8 °F 62% 30.47 in 10.0 mi SSE 3.5 mph - N/A   Clear
10:12 PM 46.4 °F 44.3 °F 33.8 °F 62% 30.48 in 10.0 mi SSE 4.6 mph - N/A   Clear
10:30 PM 46.4 °F 42.4 °F 35.6 °F 66% 30.48 in 10.0 mi SSE 8.1 mph - N/A   Clear
10:48 PM 46.4 °F 42.9 °F 33.8 °F 62% 30.47 in 10.0 mi SSE 6.9 mph - N/A   Clear
11:12 PM 46.4 °F 42.4 °F 33.8 °F 62% 30.46 in 10.0 mi SE 8.1 mph - N/A   Clear
11:30 PM 46.4 °F 42.4 °F 33.8 °F 62% 30.46 in 10.0 mi SE 8.1 mph - N/A   Clear
11:48 PM 48.2 °F - 32.0 °F 54% 30.45 in 10.0 mi South 13.8 mph 18.4 mph N/A   Clear